DW8231 Weather Reports


Display with metric or nautical units.
time (UTC)temp
F
wind
direction
speed
MPH
gust
MPH
rain 1hr
in
rain 24hr
in
rain mn
in
humidity
%
barometer
mb
20260831040528 73 142 0.0 0.0 0.00 0.00 0.00 84 1007.2
20260831040027 73 148 0.0 0.0 0.00 0.00 0.00 84 1007.2
20260831035530 73 148 0.0 0.0 0.00 0.00 0.00 84 1007.3
20260831035025 74 144 0.0 0.0 0.00 0.00 0.00 83 1007.6
20260831034525 74 148 0.0 0.0 0.00 0.00 0.00 83 1007.4
20260831034025 74 140 0.0 0.0 0.00 0.00 0.00 83 1007.4
20260831033525 74 146 0.0 0.0 0.00 0.00 0.00 82 1007.4
20260831033028 74 173 0.0 0.0 0.00 0.00 0.00 82 1007.3
20260831032625 74 132 0.0 0.0 0.00 0.00 0.00 82 1007.3
20260831032026 74 140 0.0 0.0 0.00 0.00 0.00 82 1007.3
20260831031524 74 163 0.0 0.0 0.00 0.00 0.00 81 1007.5
20260831031023 75 141 0.0 0.0 0.00 0.00 0.00 81 1007.5
20260831030522 75 141 0.0 0.0 0.00 0.00 0.00 81 1007.5
20260831030022 75 177 0.0 0.0 0.00 0.00 0.00 81 1007.4
20260831025522 75 136 0.0 0.0 0.00 0.00 0.00 80 1007.3
20260831025021 75 151 0.0 0.0 0.00 0.00 0.00 80 1007.3
20260831024528 75 163 0.0 0.0 0.00 0.00 0.00 80 1007.3
20260831024020 75 197 0.0 0.0 0.00 0.00 0.00 79 1007.4
20260831023521 76 125 0.0 0.0 0.00 0.00 0.00 79 1007.5
20260831023020 76 147 0.0 0.0 0.00 0.00 0.00 79 1007.5
20260831022618 76 153 0.0 0.0 0.00 0.00 0.00 78 1007.5
20260831022018 76 153 0.0 0.0 0.00 0.00 0.00 78 1007.6
20260831021533 76 169 0.0 0.0 0.00 0.00 0.00 78 1007.6
20260831021017 76 168 0.0 0.0 0.00 0.00 0.00 77 1007.7
20260831020522 77 172 0.0 0.0 0.00 0.00 0.00 77 1007.7
20260831020018 77 158 0.0 0.0 0.00 0.00 0.00 76 1007.6
20260831015517 77 156 0.0 0.0 0.00 0.00 0.00 76 1007.5
20260831015017 77 189 0.0 0.0 0.00 0.00 0.00 75 1007.4
20260831014521 77 178 0.0 0.0 0.00 0.00 0.00 75 1007.3
20260831014018 78 141 0.0 0.0 0.00 0.00 0.00 74 1007.4
20260831013517 78 190 0.0 0.0 0.00 0.00 0.00 74 1007.3
20260831013017 78 213 0.0 0.0 0.00 0.00 0.00 73 1007.3
20260831012018 78 149 0.0 0.0 0.00 0.00 0.00 72 1007.1
20260831011538 79 157 0.0 0.0 0.00 0.00 0.00 71 1006.8
20260831011018 79 175 0.0 0.0 0.00 0.00 0.00 71 1006.8
20260831010517 80 360 0.0 0.0 0.00 0.00 0.00 70 1006.9
20260831010017 80 143 0.0 0.0 0.00 0.00 0.00 70 1007.0
20260831005518 81 170 0.0 0.0 0.00 0.00 0.00 71 1007.0
20260831005017 81 148 0.0 0.0 0.00 0.00 0.00 70 1006.9
20260831004517 81 152 0.0 0.0 0.00 0.00 0.00 69 1006.8
20260831004017 81 171 0.0 0.0 0.00 0.00 0.00 69 1006.6
20260831003517 82 150 0.0 0.0 0.00 0.00 0.00 68 1006.5
20260831003017 82 127 0.0 0.0 0.00 0.00 0.00 68 1006.4
20260831002618 83 169 0.0 0.0 0.00 0.00 0.00 67 1006.4
20260831002016 83 173 0.0 0.0 0.00 0.00 0.00 66 1006.4
20260831001516 83 146 0.0 0.0 0.00 0.00 0.00 66 1006.4
20260831001016 83 158 0.0 0.0 0.00 0.00 0.00 65 1006.3
20260831000515 84 194 0.0 0.0 0.00 0.00 0.00 65 1006.3
20260831000015 84 140 0.0 0.0 0.00 0.00 0.00 65 1006.4
20260830235514 84 186 0.0 0.0 0.00 0.00 0.00 64 1006.4
20260830235014 85 191 0.0 0.0 0.00 0.00 0.00 64 1006.4
20260830234514 85 182 0.0 0.0 0.00 0.00 0.00 64 1006.4
20260830234018 85 178 0.0 0.0 0.00 0.00 0.00 64 1006.4
20260830233514 85 161 0.0 0.0 0.00 0.00 0.00 64 1006.4
20260830233022 85 156 0.0 0.0 0.00 0.00 0.00 64 1006.4
20260830232615 85 151 0.0 0.0 0.00 0.00 0.00 64 1006.4
20260830232015 86 161 0.0 0.0 0.00 0.00 0.00 64 1006.4
20260830231514 86 174 0.0 0.0 0.00 0.00 0.00 64 1006.5
20260830231016 86 184 0.0 0.0 0.00 0.00 0.00 64 1006.5
20260830230514 86 157 0.0 0.0 0.00 0.00 0.00 64 1006.4
20260830230013 86 216 0.0 0.0 0.00 0.00 0.00 65 1006.3
20260830225513 86 173 0.0 0.0 0.00 0.00 0.00 65 1006.1
20260830225012 86 180 0.0 0.0 0.00 0.00 0.00 66 1006.1
20260830224511 85 161 0.0 0.0 0.00 0.00 0.00 68 1006.0
20260830224011 85 122 0.0 0.0 0.00 0.00 0.00 69 1005.9
20260830223510 85 122 0.0 0.0 0.00 0.00 0.00 69 1006.0
20260830223008 85 119 0.0 0.0 0.00 0.00 0.00 70 1005.9
20260830222609 84 105 0.0 0.0 0.00 0.00 0.00 72 1005.9
20260830222009 84 112 0.0 0.0 0.00 0.00 0.00 72 1005.9
20260830221509 84 131 0.0 0.0 0.00 0.00 0.00 72 1005.9
20260830221008 84 107 0.0 0.0 0.00 0.00 0.00 72 1005.8
20260830220508 84 140 0.0 0.0 0.00 0.00 0.00 72 1005.9
20260830220008 84 101 0.0 0.0 0.00 0.00 0.00 72 1005.9
20260830215507 84 132 0.0 0.0 0.00 0.00 0.00 71 1005.9
20260830215006 84 115 0.0 0.0 0.00 0.00 0.00 71 1005.9
20260830214505 84 71 0.0 0.0 0.00 0.00 0.00 71 1006.0
20260830214005 84 144 0.0 0.0 0.00 0.00 0.00 71 1006.1
20260830213505 84 86 0.0 0.0 0.00 0.00 0.00 71 1006.2
20260830213008 84 128 0.0 0.0 0.00 0.00 0.00 71 1006.2
20260830212604 84 132 0.0 0.0 0.00 0.00 0.00 71 1006.3
20260830212004 84 142 0.0 0.0 0.00 0.00 0.00 72 1006.2
20260830211503 84 103 0.0 0.0 0.00 0.00 0.00 71 1006.4
20260830211002 83 103 0.0 0.0 0.00 0.00 0.00 72 1006.3
20260830210501 83 133 0.0 0.0 0.00 0.00 0.00 72 1006.4
20260830210059 83 134 0.0 0.0 0.00 0.00 0.00 72 1006.5
20260830205559 83 98 0.0 0.0 0.00 0.00 0.00 72 1006.6
20260830205058 83 99 0.0 0.0 0.00 0.00 0.00 72 1006.7
20260830204558 83 72 0.0 0.0 0.00 0.00 0.00 72 1006.7
20260830204058 83 138 0.0 0.0 0.00 0.00 0.00 72 1006.8
20260830203558 83 96 0.0 0.0 0.00 0.00 0.00 72 1006.9
20260830203057 82 90 0.0 0.0 0.00 0.00 0.00 73 1007.1
20260830202600 83 113 0.0 0.0 0.00 0.00 0.00 72 1007.0
20260830202057 83 190 0.0 0.0 0.00 0.00 0.00 72 1007.0
20260830201556 83 109 0.0 0.0 0.00 0.00 0.00 72 1007.0
20260830201054 82 133 0.0 0.0 0.00 0.00 0.00 73 1007.0
20260830200556 82 120 0.0 0.0 0.00 0.00 0.00 73 1006.8
20260830200054 82 130 0.0 0.0 0.00 0.00 0.00 74 1006.9
20260830195557 82 132 0.0 0.0 0.00 0.00 0.00 73 1006.8
20260830195054 82 131 0.0 0.0 0.00 0.00 0.00 73 1006.8
20260830194604 82 134 0.0 0.0 0.00 0.00 0.00 73 1006.7
20260830194053 82 98 0.0 0.0 0.00 0.00 0.00 73 1006.7
20260830193552 82 138 0.0 0.0 0.00 0.00 0.00 74 1006.8
20260830193102 81 131 0.0 0.0 0.00 0.00 0.00 73 1006.7
20260830192550 81 39 0.0 0.0 0.00 0.00 0.00 75 1006.9
20260830192056 81 59 0.0 0.0 0.00 0.00 0.00 75 1006.9
20260830191553 81 84 0.0 0.0 0.00 0.00 0.00 74 1007.0
20260830191052 80 88 0.0 0.0 0.00 0.00 0.00 76 1007.0
20260830190552 80 82 0.0 0.0 0.00 0.00 0.00 76 1007.0
20260830190052 80 120 0.0 0.0 0.00 0.00 0.00 75 1007.0
20260830185551 80 114 0.0 0.0 0.00 0.00 0.00 76 1007.4
20260830185050 80 162 0.0 0.0 0.00 0.00 0.00 75 1007.3
20260830184603 80 75 0.0 0.0 0.00 0.00 0.00 76 1007.3
20260830184049 80 40 0.0 0.0 0.00 0.00 0.00 76 1007.1
20260830183551 79 107 0.0 0.0 0.00 0.00 0.00 77 1007.4
20260830183051 79 105 0.0 0.0 0.00 0.00 0.00 78 1007.6
20260830182545 78 97 0.0 0.0 0.00 0.00 0.00 78 1007.7
20260830182041 78 105 0.0 0.0 0.00 0.00 0.00 78 1007.7
20260830181541 79 83 0.0 0.0 0.00 0.00 0.00 77 1007.7
20260830181044 79 72 0.0 0.0 0.00 0.00 0.00 78 1007.8
20260830180539 79 126 0.0 0.0 0.00 0.00 0.00 78 1007.9
20260830180037 79 69 0.0 0.0 0.00 0.00 0.00 79 1008.1
20260830175536 78 119 0.0 0.0 0.00 0.00 0.00 81 1008.2
20260830175035 77 119 0.0 0.0 0.00 0.00 0.00 81 1008.2
20260830174538 77 108 0.0 0.0 0.00 0.00 0.00 82 1008.2
20260830174032 77 107 0.0 0.0 0.00 0.00 0.00 82 1008.5
20260830173533 77 119 0.0 0.0 0.00 0.00 0.00 82 1008.6
20260830173032 76 118 0.0 0.0 0.00 0.00 0.00 82 1008.6
20260830172530 76 119 0.0 0.0 0.00 0.00 0.00 82 1008.5
20260830172030 76 105 0.0 0.0 0.00 0.00 0.00 82 1008.5
20260830171534 76 136 0.0 0.0 0.00 0.00 0.00 82 1008.5
20260830171031 76 142 0.0 0.0 0.00 0.00 0.00 83 1008.6
20260830170528 76 150 0.0 0.0 0.00 0.00 0.00 82 1008.3
20260830170028 76 120 0.0 0.0 0.00 0.00 0.00 81 1008.4
20260830165527 77 120 0.0 0.0 0.00 0.00 0.00 80 1008.4
20260830165029 77 101 0.0 0.0 0.00 0.00 0.00 80 1008.5
20260830164525 77 142 0.0 0.0 0.00 0.00 0.00 80 1008.3
20260830164026 77 116 0.0 0.0 0.00 0.00 0.00 80 1008.1
20260830163522 77 127 0.0 0.0 0.00 0.00 0.00 80 1007.9
20260830163021 78 128 0.0 0.0 0.00 0.00 0.00 78 1008.0
20260830162521 78 83 0.0 0.0 0.00 0.00 0.00 79 1007.9
20260830162026 78 113 0.0 0.0 0.00 0.00 0.00 80 1007.9
20260830161520 77 116 0.0 0.0 0.00 0.00 0.00 80 1007.9
20260830161020 77 29 0.0 0.0 0.00 0.00 0.00 80 1007.7
20260830160520 77 40 0.0 0.0 0.00 0.00 0.00 81 1007.7
20260830160020 76 39 0.0 0.0 0.00 0.00 0.00 82 1007.7
20260830155520 76 99 0.0 0.0 0.00 0.00 0.00 83 1007.3
20260830155020 76 69 0.0 0.0 0.00 0.00 0.00 83 1007.2
20260830154520 76 78 0.0 0.0 0.00 0.00 0.00 83 1007.4
20260830154023 75 68 0.0 0.0 0.00 0.00 0.00 84 1007.5
20260830153520 75 15 0.0 0.0 0.00 0.00 0.00 85 1007.5
20260830153019 75 69 0.0 0.0 0.00 0.00 0.00 85 1007.4
20260830152522 74 118 0.0 0.0 0.00 0.00 0.00 87 1007.3
20260830152020 74 117 0.0 0.0 0.00 0.00 0.00 87 1007.3
20260830151520 74 88 0.0 0.0 0.00 0.00 0.00 87 1007.4
20260830151020 73 360 0.0 0.0 0.00 0.00 0.00 89 1007.5
20260830150520 72 56 0.0 0.0 0.00 0.00 0.00 89 1007.6
20260830150020 72 81 0.0 0.0 0.00 0.00 0.00 89 1007.7
20260830145519 72 96 0.0 0.0 0.00 0.00 0.00 90 1007.6
20260830145020 72 83 0.0 0.0 0.00 0.00 0.00 90 1007.4
20260830144523 72 91 0.0 0.0 0.00 0.00 0.00 91 1007.5
20260830144018 71 91 0.0 0.0 0.00 0.00 0.00 92 1007.7
20260830143520 71 92 0.0 0.0 0.00 0.00 0.00 92 1007.7
20260830143019 71 93 0.0 0.0 0.00 0.00 0.00 92 1007.8
20260830142519 70 92 0.0 0.0 0.00 0.00 0.00 92 1008.0
20260830142019 70 92 0.0 0.0 0.00 0.00 0.00 92 1008.0
20260830141519 70 91 0.0 0.0 0.00 0.00 0.00 92 1008.0
20260830141018 70 79 0.0 0.0 0.00 0.00 0.00 93 1008.0
20260830140518 70 66 0.0 0.0 0.00 0.00 0.00 93 1008.0
20260830140019 69 60 0.0 0.0 0.00 0.00 0.00 93 1008.0
20260830135522 69 60 0.0 0.0 0.00 0.00 0.00 93 1008.1
20260830135022 68 51 0.0 0.0 0.00 0.00 0.00 94 1008.0
20260830134531 68 51 0.0 0.0 0.00 0.00 0.00 93 1007.9
20260830134018 68 51 0.0 0.0 0.00 0.00 0.00 93 1007.8
20260830133519 68 51 0.0 0.0 0.00 0.00 0.00 94 1007.8
20260830133018 68 51 0.0 0.0 0.00 0.00 0.00 93 1007.6
20260830132518 67 51 0.0 0.0 0.00 0.02 0.00 93 1007.9
20260830132019 67 51 0.0 0.0 0.00 0.02 0.00 93 1007.8
20260830131519 67 51 0.0 0.0 0.00 0.02 0.00 93 1007.8
20260830131018 67 51 0.0 0.0 0.00 0.02 0.00 94 1007.9
20260830130518 67 51 0.0 0.0 0.00 0.02 0.00 94 1008.0
20260830130018 67 52 0.0 0.0 0.00 0.02 0.00 94 1007.6
20260830125519 67 63 0.0 0.0 0.00 0.02 0.00 94 1007.9
20260830125016 67 74 0.0 0.0 0.00 0.02 0.00 94 1008.0
20260830124516 67 74 0.0 0.0 0.00 0.02 0.00 94 1008.0
20260830124016 67 74 0.0 0.0 0.00 0.02 0.00 93 1007.9
20260830123518 67 74 0.0 0.0 0.00 0.02 0.00 93 1007.9
20260830123024 67 75 0.0 0.0 0.00 0.02 0.00 93 1007.7
20260830122517 67 74 0.0 0.0 0.00 0.12 0.00 93 1007.7
20260830122017 67 74 0.0 0.0 0.00 0.12 0.00 93 1007.7
20260830121519 67 74 0.0 0.0 0.00 0.12 0.00 93 1007.7
20260830121017 66 74 0.0 0.0 0.00 0.12 0.00 93 1007.6
20260830120519 66 74 0.0 0.0 0.00 0.12 0.00 93 1007.6
20260830120016 66 73 0.0 0.0 0.00 0.12 0.00 93 1007.6
20260830115516 66 72 0.0 0.0 0.00 0.12 0.00 93 1007.3
20260830115016 66 72 0.0 0.0 0.00 0.12 0.00 93 1007.5
20260830114519 66 70 0.0 0.0 0.00 0.12 0.00 93 1007.3
20260830114015 66 70 0.0 0.0 0.00 0.12 0.00 93 1007.5
20260830113516 66 70 0.0 0.0 0.00 0.12 0.00 93 1007.6
20260830113016 66 70 0.0 0.0 0.00 0.12 0.00 93 1007.5
20260830112515 66 71 0.0 0.0 0.00 0.22 0.00 93 1007.5
20260830112015 66 72 0.0 0.0 0.00 0.22 0.00 93 1007.6
20260830111517 66 72 0.0 0.0 0.00 0.22 0.00 93 1007.6
20260830111015 67 80 0.0 0.0 0.00 0.22 0.00 93 1007.6
20260830110515 67 82 0.0 0.0 0.00 0.22 0.00 93 1007.5
20260830110014 67 82 0.0 0.0 0.00 0.22 0.00 93 1007.6
20260830105514 67 82 0.0 0.0 0.00 0.22 0.00 93 1007.8
20260830105013 67 80 0.0 0.0 0.00 0.22 0.00 93 1007.8
20260830104514 67 80 0.0 0.0 0.00 0.22 0.00 93 1007.8
20260830104014 67 80 0.0 0.0 0.00 0.22 0.00 93 1007.8
20260830103516 67 80 0.0 0.0 0.00 0.22 0.00 93 1007.8
20260830103014 67 81 0.0 0.0 0.00 0.22 0.00 93 1007.9
20260830102517 67 81 0.0 0.0 0.00 0.26 0.00 93 1007.9
20260830102014 67 81 0.0 0.0 0.00 0.26 0.00 93 1007.9
20260830101514 67 81 0.0 0.0 0.00 0.26 0.00 93 1007.7
20260830101014 67 81 0.0 0.0 0.00 0.26 0.00 93 1007.6
20260830100513 67 53 0.0 0.0 0.00 0.26 0.00 93 1007.5
20260830100017 67 53 0.0 0.0 0.00 0.26 0.00 93 1007.5
20260830095515 67 53 0.0 0.0 0.00 0.26 0.00 93 1007.5
20260830095015 67 53 0.0 0.0 0.00 0.26 0.00 93 1007.4
20260830094513 67 52 0.0 0.0 0.00 0.26 0.00 92 1007.2
20260830094012 67 51 0.0 0.0 0.00 0.26 0.00 92 1007.2
20260830093512 67 74 0.0 0.0 0.00 0.26 0.00 92 1007.5
20260830093020 67 74 0.0 0.0 0.00 0.26 0.00 92 1007.7
20260830092512 67 77 0.0 0.0 0.00 0.26 0.00 92 1007.6
20260830092013 67 78 0.0 0.0 0.00 0.26 0.00 92 1007.6
20260830091520 67 77 0.0 0.0 0.00 0.26 0.00 92 1007.6
20260830091013 67 73 0.0 0.0 0.00 0.26 0.00 92 1007.5
20260830090512 67 76 0.0 0.0 0.00 0.26 0.00 92 1007.6
20260830090014 67 72 0.0 0.0 0.00 0.26 0.00 92 1007.7
20260830085516 67 72 0.0 0.0 0.00 0.26 0.00 92 1007.9
20260830085012 67 72 0.0 0.0 0.00 0.26 0.00 92 1007.8
20260830084645 67 72 0.0 0.0 0.00 0.26 0.00 92 1007.7
20260830084012 67 72 0.0 0.0 0.00 0.26 0.00 92 1007.6
20260830083513 67 71 0.0 0.0 0.00 0.26 0.00 92 1007.6
20260830083013 67 71 0.0 0.0 0.00 0.26 0.00 92 1007.7
20260830082510 67 57 0.0 0.0 0.00 0.28 0.00 91 1007.7
20260830082010 67 57 0.0 0.0 0.00 0.28 0.00 91 1007.7
20260830081510 67 57 0.0 0.0 0.00 0.28 0.00 91 1007.8
20260830081009 68 56 0.0 0.0 0.00 0.28 0.00 91 1007.8
20260830080509 68 57 0.0 0.0 0.00 0.28 0.00 91 1007.7
20260830080010 68 61 0.0 0.0 0.00 0.28 0.00 91 1007.8
20260830075509 68 62 0.0 0.0 0.00 0.28 0.00 91 1007.9
20260830075008 68 63 0.0 0.0 0.00 0.28 0.00 91 1007.8
20260830074508 68 62 0.0 0.0 0.00 0.28 0.00 91 1007.8
20260830074008 68 62 0.0 0.0 0.00 0.28 0.00 91 1007.9
20260830073508 68 62 0.0 0.0 0.00 0.28 0.00 91 1008.1
20260830073008 68 63 0.0 0.0 0.00 0.28 0.00 91 1008.1
20260830072509 68 63 0.0 0.0 0.00 0.28 0.00 91 1008.1
20260830072008 68 61 0.0 0.0 0.00 0.28 0.00 91 1008.0
20260830071508 68 62 0.0 0.0 0.00 0.28 0.00 91 1008.0
20260830071008 68 61 0.0 0.0 0.00 0.28 0.00 91 1008.0
20260830070509 68 61 0.0 0.0 0.00 0.28 0.00 91 1008.0
20260830070007 68 61 0.0 0.0 0.00 0.28 0.00 90 1008.0
20260830065510 68 63 0.0 0.0 0.00 0.28 0.00 90 1008.0
20260830065007 68 62 0.0 0.0 0.00 0.28 0.00 90 1008.1
20260830064506 68 62 0.0 0.0 0.00 0.28 0.00 90 1008.0
20260830064007 68 62 0.0 0.0 0.00 0.28 0.00 90 1008.1
20260830063507 68 62 0.0 0.0 0.00 0.28 0.00 90 1008.3
20260830063006 68 62 0.0 0.0 0.00 0.28 0.00 90 1008.3
20260830062505 69 61 0.0 0.0 0.00 0.28 0.00 90 1008.5
20260830062008 69 61 0.0 0.0 0.00 0.28 0.00 90 1008.5
20260830061506 69 61 0.0 0.0 0.00 0.28 0.00 90 1008.5
20260830061005 69 61 0.0 0.0 0.00 0.28 0.00 90 1008.5
20260830060505 68 61 0.0 0.0 0.00 0.28 0.00 90 1008.5
20260830060005 68 61 0.0 0.0 0.00 0.28 0.00 90 1008.6
20260830055505 68 61 0.0 0.0 0.00 0.28 0.00 90 1008.6
20260830055005 68 61 0.0 0.0 0.00 0.28 0.00 90 1008.6
20260830054505 68 61 0.0 0.0 0.00 0.28 0.00 90 1008.6
20260830054004 68 61 0.0 0.0 0.00 0.28 0.00 90 1008.6
20260830053504 69 59 0.0 0.0 0.00 0.28 0.00 90 1008.6
20260830053006 69 58 0.0 0.0 0.00 0.28 0.00 90 1008.6
20260830052504 69 56 0.0 0.0 0.00 0.28 0.00 90 1008.6
20260830052004 69 56 0.0 0.0 0.00 0.28 0.00 90 1008.6
20260830051505 69 55 0.0 0.0 0.00 0.28 0.00 90 1008.7
20260830051004 69 72 0.0 0.0 0.00 0.28 0.00 90 1008.7
20260830050504 69 71 0.0 0.0 0.00 0.28 0.00 90 1008.8
20260830050003 69 71 0.0 0.0 0.00 0.28 0.00 90 1008.8
20260830045503 69 71 0.0 0.0 0.00 0.28 0.00 90 1008.9
20260830045003 69 78 0.0 0.0 0.00 0.28 0.00 90 1009.0
20260830044503 69 78 0.0 0.0 0.00 0.28 0.00 90 1008.9
20260830044005 69 78 0.0 0.0 0.00 0.28 0.00 90 1008.9
20260830043502 69 78 0.0 0.0 0.00 0.28 0.00 90 1009.0
20260830043002 69 78 0.0 0.0 0.00 0.28 0.00 89 1009.0
20260830042502 69 78 0.0 0.0 0.00 0.28 0.00 89 1008.9
20260830042002 69 78 0.0 0.0 0.00 0.28 0.00 89 1008.9
20260830041502 69 78 0.0 0.0 0.00 0.28 0.00 89 1008.9
20260830041005 69 78 0.0 0.0 0.00 0.28 0.00 89 1009.1